Regional Weather Roundup
Issued by NWS

Home | Current Version | Previous Version | Text Only | Print | Product List | Glossary On
Versions: 1 2 3 4 5 6 7 8 9 10 11 12 13 14 15 16 17 18 19 20 21 22 23 24 25 26 27 28 29 30 31 32 33 34 35 36 37 38 39 40 41 42 43 44 45 46 47 48 49 50
000
ASUS43 KOAX 030010
RWRNE

WEATHER ROUNDUP FOR NEBRASKA
NATIONAL WEATHER SERVICE OMAHA NE
700 PM CDT WED SEP 02 2015

NOTES: SATELLITE DATA IS BEING USED TO AUGMENT CLOUD COVER ABOVE
       12000 FEET.
       "FAIR" INDICATES FEW OR NO CLOUDS BELOW 12,000 FEET WITH NO
       SIGNIFICANT WEATHER AND/OR OBSTRUCTIONS TO VISIBILITY.

  * THESE STATIONS DO NOT REPORT WEATHER SUCH AS RAIN...SNOW OR FOG.

NEZ001>004-019>022-054>056-030100-
NEBRASKA PANHANDLE

CITY           SKY/WX    TMP DP  RH WIND       PRES   REMARKS
SCOTTSBLUFF    SUNNY     92  44  19 SE7       29.88S
6HR MIN TEMP:  87; 6HR MAX TEMP:  96;

ALLIANCE       SUNNY     93  41  16 S8        29.87F
6HR MIN TEMP:  87; 6HR MAX TEMP:  96;

CHADRON        SUNNY     95  45  17 S7        29.79F HX  91
6HR MIN TEMP:  93; 6HR MAX TEMP:  99;

KIMBALL        MOSUNNY   88  46  23 CALM      29.95S
SIDNEY         SUNNY     91  42  18 SE7       29.93S
6HR MIN TEMP:  89; 6HR MAX TEMP:  95;

$$

NEZ057>060-069>072-079>082-030100-
SOUTHWEST NEBRASKA

CITY           SKY/WX    TMP DP  RH WIND       PRES   REMARKS
NORTH PLATTE   SUNNY     89  57  33 SE8       29.83S
6HR MIN TEMP:  89; 6HR MAX TEMP:  98;

IMPERIAL       MOSUNNY   96  51  21 SE7       29.85S HX  93
6HR MIN TEMP:  90; 6HR MAX TEMP:  99;

LEXINGTON      SUNNY     90  63  40 E6        29.83S HX  91
MCCOOK         SUNNY     96  54  24 E8        29.81F HX  94
6HR MIN TEMP:  94; 6HR MAX TEMP: 100;

OGALLALA       SUNNY     93  53  25 S8        29.86S HX  91
$$

NEZ005>010-023>029-035>040-094-030100-
NORTH CENTRAL NEBRASKA

CITY           SKY/WX    TMP DP  RH WIND       PRES   REMARKS
VALENTINE      MOSUNNY   96  46  18 S7        29.78F HX  92
6HR MIN TEMP:  93; 6HR MAX TEMP: 102;

AINSWORTH      MOSUNNY   88  58  36 S6        29.80S
BROKEN BOW     SUNNY     91  62  37 S9        29.84S HX  91
6HR MIN TEMP:  91; 6HR MAX TEMP:  98;

O`NEILL        SUNNY     89  69  50 SE12G17   29.81S HX  93
ORD            SUNNY     91  63  39 S10       29.81S HX  92
6HR MIN TEMP:  91; 6HR MAX TEMP:  97;

THEDFORD       MOSUNNY   94  57  29 S16G22    29.84R HX  92
$$

NEZ041-046>049-061>064-073>077-083>087-030100-
SOUTH CENTRAL NEBRASKA

CITY           SKY/WX    TMP DP  RH WIND       PRES   REMARKS
GRAND ISLAND   MOSUNNY   91  65  41 S6        29.83S HX  93
6HR MIN TEMP:  88; 6HR MAX TEMP:  96;

AURORA         MOSUNNY   87  69  54 S6        29.82S HX  91
HASTINGS       MOSUNNY   91  65  41 S7        29.83S HX  93
6HR MIN TEMP:  88; 6HR MAX TEMP:  95;

HEBRON         MOSUNNY   91  59  33 S12G21    29.82S HX  90
HOLDREGE       MOSUNNY   92  60  33 SE6       29.83S HX  91
KEARNEY *      MOSUNNY   91  66  43 SE8       29.83S HX  94
YORK           MOSUNNY   86  70  58 S6        29.82F HX  90
$$

NEZ011>018-030>034-042>045-030100-
NORTHEAST NEBRASKA

CITY           SKY/WX    TMP DP  RH WIND       PRES   REMARKS
NORFOLK        SUNNY     87  71  58 S7        29.82S HX  93
6HR MIN TEMP:  85; 6HR MAX TEMP:  89;

ALBION         SUNNY     85  70  60 SE6       29.83S HX  90
BLAIR          CLEAR     85  71  63 S6        29.84S HX  90
COLUMBUS *     MOSUNNY   88  70  55 SE5       29.82S HX  92
FREMONT        CLEAR     87  71  58 SE8       29.83S HX  92
TEKAMAH        CLEAR     86  76  71 SE5       29.82S HX  96
6HR MIN TEMP:  84; 6HR MAX TEMP:  88;

WAYNE          MOSUNNY   84  75  73 S5        29.83S HX  92
$$

NEZ050>053-065>068-078-088>093-030100-
SOUTHEAST NEBRASKA

CITY           SKY/WX    TMP DP  RH WIND       PRES   REMARKS
LINCOLN        MOSUNNY   88  68  51 S9        29.83R HX  91
6HR MIN TEMP:  88; 6HR MAX TEMP:  93; 6HR PCP: TRACE;

OMAHA EPPLEY   MOCLDY    88  71  57 S15       29.83S HX  94
6HR MIN TEMP:  84; 6HR MAX TEMP:  91;

BEATRICE       MOSUNNY   88  67  49 S15       29.83F HX  91
FALLS CITY     CLEAR     86  69  56 S9        29.86S HX  90
6HR MIN TEMP:  85; 6HR MAX TEMP:  91;

NEBRASKA CITY  CLEAR     85  65  52 S8        29.86S
PLATTSMOUTH    PTCLDY    84  69  60 SE7       29.85S
$$

NEZ044-045-051>053-067-030100-
OMAHA AREA

CITY           SKY/WX    TMP DP  RH WIND       PRES   REMARKS
OMAHA EPPLEY   MOCLDY    88  71  57 S15       29.83S HX  94
6HR MIN TEMP:  84; 6HR MAX TEMP:  91;

BLAIR          CLEAR     85  71  63 S6        29.84S HX  90
FREMONT        CLEAR     87  71  58 SE8       29.83S HX  92
MILLARD        PTCLDY    86  73  65 SE9       29.83S HX  94
OFFUTT AFB     CLEAR     85  72  65 SE8       29.83S HX  91
PLATTSMOUTH    PTCLDY    84  69  60 SE7       29.85S
WAHOO          FAIR      85  75  70 SE7       29.83S HX  93
$$



USA.gov is the U.S. government's official web portal to all federal, state and local government web resources and services.